Regional Weather Roundup
Issued by NWS

Home | Current Version | Previous Version | Text Only | Print | Product List | Glossary Off
Versions: 1 2 3 4 5 6 7 8 9 10 11 12 13 14 15 16 17 18 19 20 21 22 23 24 25 26 27 28 29 30 31 32 33 34 35 36 37 38 39 40 41 42 43 44 45 46 47 48 49 50

000
ASUS43 KMKX 051010
RWRWI

WISCONSIN REGIONAL WEATHER ROUNDUP
NATIONAL WEATHER SERVICE MILWAUKEE/SULLIVAN WI
400 AM CST THU MAR 05 2015

NOTE: "FAIR" INDICATES FEW OR NO CLOUDS BELOW 12,000 FEET WITH NO
SIGNIFICANT WEATHER AND/OR OBSTRUCTIONS TO VISIBILITY.

WIZ001-002-006>008-014>016-023>028-051100-
NORTHWEST WISCONSIN

CITY           SKY/WX    TMP DP  RH WIND       PRES   REMARKS
SUPERIOR ARPT  PTCLDY   -13 -18  77 SW7       30.41F WCI -28
ASHLAND        CLEAR     -9 -16  71 SW7       30.38S WCI -24
HAYWARD        CLEAR    -23 -29  73 CALM      30.35S
SIREN          FAIR     -18 -24  76 CALM      30.40F
CUMBERLAND     CLEAR    -15 -22  70 W3        30.36S
RICE LAKE      CLEAR    -19 -24  76 W3        30.40S
CHETEK         CLEAR    -16 -20  82 MISG      30.39S
LADYSMITH      CLEAR    -21 -27  73 CALM      30.37S
EAU CLAIRE     CLEAR     -8 -16  67 CALM      30.41R
MENOMONIE      CLEAR     -6 -14  68 W5        30.42S WCI -17
NEW RICHMOND   CLEAR    -15 -20  77 CALM      30.41S
OSCEOLA        CLEAR    -15 -20  78 CALM      30.46R
$$

WIZ003>005-009-010-017-018-051100-
NORTH CENTRAL WISCONSIN

CITY           SKY/WX    TMP DP  RH WIND       PRES   REMARKS
MANITOWISH WTR CLEAR    -15 -19  80 CALM      30.27R
ARBOR VITAE    CLEAR    -17 -24  71 CALM      30.27S
WOODRUFF       CLEAR    -17 -24  71 CALM      30.27S
RHINELANDER    CLEAR    -13 -18  78 W3        30.27S
EAGLE RIVER    CLOUDY   -17 -23  73 CALM      30.26S
LAND O LAKES   CLOUDY   -14 -19  76 CALM      30.25S
PHILLIPS       FAIR     -22 -27  78 CALM      30.30S
TOMAHAWK       CLEAR    -21 -27  73 CALM      30.30S
MEDFORD        CLEAR    -13 -19  77 CALM      30.31S
MERRILL        CLEAR    -20 -25  77 CALM      30.31F
$$

WIZ029-030-035-036-043>047-051100-
CENTRAL WISCONSIN

CITY           SKY/WX    TMP DP  RH WIND       PRES   REMARKS
WAUSAU         CLEAR     -7 -15  68 NW10      30.32S WCI -25
MOSINEE        CLEAR     -9 -17  70 NW6       30.33S WCI -23
MARSHFIELD     CLEAR     -8 -16  67 NW8       30.33S WCI -24
STEVENS POINT  CLEAR    -15 -20  77 CALM      30.35S
WAUPACA        CLEAR     -3 -12  64 W5        30.38S WCI -13
WAUTOMA        CLEAR    -11 -17  74 CALM      30.39R
WISC RAPIDS    CLEAR     -9 -17  68 NW3       30.38R
CAMP DOUGLAS   CLEAR     -8 -12  80 W5        30.39R WCI -19
$$

WIZ011>013-019>022-031-037>040-048>050-051100-
NORTHEAST WISCONSIN

CITY           SKY/WX    TMP DP  RH WIND       PRES   REMARKS
ANTIGO         CLEAR    -18 -22  80 CALM      30.28S
SHAWANO        CLEAR     -3 -12  65 CALM      30.36S
OCONTO         CLEAR    -10 -16  75 CALM      30.37S
STURGEON BAY   CLEAR     -2 -15  55 W5        30.36S WCI -12
GREEN BAY      CLEAR     -6 -14  68 NW7       30.37S WCI -20
MANITOWOC      CLEAR     -2 -10  69 NW7       30.38R WCI -15
APPLETON       CLEAR     -4 -15  59 W7        30.36S WCI -18
CLINTONVILLE   CLEAR     -4 -13  65 W5        30.36S WCI -15
OSHKOSH        CLEAR     -1 -12  59 NW7       30.37R WCI -14
$$

WIZ032>034-041-042-053>061-051100-
SOUTHWEST WISCONSIN

CITY           SKY/WX    TMP DP  RH WIND       PRES   REMARKS
LA CROSSE      CLEAR     -2 -11  65 CALM      30.44R
SPARTA         CLEAR    -11 -16  79 E3        30.42R
VIROQUA        CLEAR     -6 -12  75 CALM      30.35R
BOSCOBEL       CLEAR     -6 -11  79 CALM      30.43S
PRAIRIE DU CHI CLEAR     -1 -11  65 CALM      30.44S
PLATTEVILLE    FAIR      -1  -8  72 NW3       30.38R
$$

WIZ056-057-062-063-064-067-068-051100-
SOUTH CENTRAL WISCONSIN

CITY           SKY/WX    TMP DP  RH WIND       PRES   REMARKS
REEDSBURG      CLEAR     -2 -10  69 CALM      30.38S
BARABOO/DELLS  CLEAR     -3 -12  65 CALM      30.37S
LONE ROCK      CLEAR     -6 -12  75 W3        30.41S
MINERAL POINT  CLEAR      0  -8  71 NW5       30.35R WCI -10
MADISON        CLEAR      0 -10  63 NW5       30.38R WCI -10
MIDDLETON      CLEAR     -2 -11  64 NW3       30.38R
WATERTOWN      CLEAR      1  -9  63 NW5       30.36S WCI  -9
MONROE         CLEAR      1  -6  71 NW6       30.35R WCI -10
JANESVILLE     CLEAR      0  -8  71 CALM      30.37R
$$

WIZ051-052-058>065-066-070>072-051100-
SOUTHEAST WISCONSIN

CITY           SKY/WX    TMP DP  RH WIND       PRES   REMARKS
MILWAUKEE      PTCLDY     6 -10  47 N7        30.36S WCI  -6
WAUKESHA       PTCLDY     0  -9  65 NW6       30.35S WCI -12
MILWAUKEE/TIMM PTCLDY     3  -9  55 NW8       30.37R WCI -10
RACINE         PTCLDY     4 -10  52 NW6       30.37R WCI  -7
BURLINGTON     PTCLDY    -3 -13  62 NW3       30.36R
KENOSHA        PTCLDY    -4 -13  65 W5        30.35S WCI -15
FOND DU LAC    FLURRIES  -1 -12  59 NW7       30.37R WCI -14
SHEBOYGAN      CLEAR      0 -11  59 NW6       30.37R WCI -12
WEST BEND      PTCLDY     1  -9  60 NW5       30.36R WCI  -8
JUNEAU         CLEAR     -1 -10  63 NW3       30.37R
$$

LSZ147-162-051100-
LAKE SUPERIOR

STATION/POSITION TIME  TEMP    WIND        PRES    WAVE
                       AIR SEA DIR/SP/G            HT/PER
                 (UTC) (F)     (DEG/KT/KT) (MB)    (FT/S)
DEVILS ISLAND    1000    4     270/ 12/ 13 1029.9R
PORT WING        0940   -6     210/  3/ 10 1029.1F
SAXON HARBOR     0900   -5     200/  7/  9 1028.4F
$$

LMZ867-665-643>646-051100-
LAKE MICHIGAN

STATION/POSITION TIME  TEMP    WIND        PRES    WAVE
                       AIR SEA DIR/SP/G            HT/PER
                 (UTC) (F)     (DEG/KT/KT) (MB)    (FT/S)
NORTHPORT PIER   0913    0     280/  7/ 14 1027.8S
KEWAUNEE LAKESHO 0900   -3     300/  6/  7 1027.1F
SHEBOYGAN LAKESH 1000    4     310/ 10/ 12 1030.4R
PORT WASHINGTON  0940    4     310/  5/  8 1029.1F
MILWAUKEE LAKESH 0900    8     330/  9/ 12   N/A
KENOSHA   LAKESH 1000    5     290/  8/ 10 1028.1R
$$

TC  - TEMPERATURE IN CELSIUS
VSB - VISIBILITY IN STATUTE MILES
WCI - WIND CHILL INDEX
HX  - HEAT INDEX




USA.gov is the U.S. government's official web portal to all federal, state and local government web resources and services.